[[{"header":{"parameterUnit":"m.s-1","parameterCategory":1,"la1":30.2991,"la2":30.254,"lo1":-89.0895,"lo2":-89.0444,"dy":0.0017,"dx":0.0017,"nx":28,"ny":28,"refTime":"2025-02-07T03:00:00:Z","depth":0,"parameterNumber":2,"parameterNumberName":"U-component_of_WINDS"},"data":[0,0,0,0,0,0,0,0,0,0,0,0,0,0,0,0,0,0,0,0,0,0,0,0,0,0,0,0,0,0,0,0,0,0,0,0,0,0,0,0,0,0,0,0,0,0,0,0,0,0,0,0,0,0,0,0,0,0,-1.2687,-1.2687,0,-1.2682,-1.2682,-1.2682,-1.2654,-1.2653,-1.2652,-1.2652,-1.2647,-1.2648,-1.2648,0,0,0,0,0,0,0,0,0,0,0,0,0,-1.2673,-1.2673,-1.2687,-1.2687,-1.2687,-1.2682,-1.2682,-1.2682,-1.2654,-1.2653,-1.2652,-1.2651,-1.2647,-1.2648,-1.2648,0,0,0,0,0,0,0,0,0,0,0,0,0,-1.2675,-1.2673,-1.2687,-1.2672,-1.2671,-1.2682,-1.2682,-1.2682,-1.2654,-1.2653,-1.2652,-1.2651,-1.2647,-1.2648,-1.2648,-1.2674,0,0,-1.2651,-1.2651,0,0,0,0,0,0,0,0,-1.2675,-1.2675,-1.2674,-1.2673,-1.2672,-1.2667,-1.2675,-1.2679,-1.2654,-1.266,-1.2652,-1.265,-1.2655,-1.2655,-1.2656,-1.2674,-1.2673,-1.2651,-1.2651,-1.2652,-1.2652,0,0,0,0,0,0,0,-1.2674,-1.2675,-1.2685,-1.2674,-1.2673,-1.2666,-1.2665,-1.2676,-1.2663,-1.266,-1.2658,-1.2657,-1.2654,-1.2656,-1.2656,-1.2673,-1.2651,-1.2652,-1.2652,-1.2652,-1.2711,-1.2712,0,0,0,0,0,0,-1.2676,-1.2675,-1.2685,-1.2685,-1.2671,-1.2667,-1.2666,-1.267,-1.2663,-1.2661,-1.2658,-1.2656,-1.2655,-1.2655,-1.2656,-1.2684,-1.2652,-1.2652,-1.2653,-1.2709,-1.2711,-1.2712,0,0,0,0,0,0,-1.2676,-1.2677,-1.2685,-1.2679,-1.268,-1.2668,-1.2673,-1.267,-1.2672,-1.2662,-1.266,-1.2662,-1.2654,-1.2655,-1.2669,-1.2683,-1.2653,-1.2654,-1.2708,-1.271,-1.2711,-1.2741,0,0,0,0,0,0,-1.2676,-1.2678,-1.2687,-1.268,-1.268,-1.2699,-1.2674,-1.2671,-1.2673,-1.267,-1.2665,-1.2663,-1.2653,-1.2668,-1.267,-1.2684,-1.2654,-1.2707,-1.2709,-1.2711,-1.2739,-1.2744,-1.2748,0,0,0,0,0,-1.2675,-1.2696,-1.2687,-1.2689,-1.2692,-1.27,-1.27,-1.2687,-1.2674,-1.2683,-1.2677,-1.2663,-1.2682,-1.267,-1.2672,-1.2686,-1.2706,-1.2708,-1.2711,-1.2737,-1.2743,-1.2748,0,0,0,0,0,0,-1.2705,-1.2695,-1.2685,-1.2704,-1.2703,-1.2695,-1.2706,-1.2694,-1.2697,-1.2694,-1.2679,-1.2678,-1.2695,-1.2692,-1.2679,-1.271,-1.2692,-1.2694,-1.2711,-1.2716,-1.2721,-1.272,-1.2655,0,0,0,0,0,-1.2714,-1.2721,-1.2711,-1.2729,-1.2729,-1.2718,-1.2721,-1.2711,-1.271,-1.2709,-1.2704,-1.2703,-1.2709,-1.2713,-1.2717,-1.2739,-1.2737,-1.275,-1.2754,-1.2758,-1.276,-1.2771,-1.2776,-1.272,-1.272,-1.272,0,0,-1.2732,-1.2727,-1.2732,-1.2735,-1.2733,-1.274,-1.2717,-1.2727,-1.2732,-1.2711,-1.2723,-1.272,-1.2718,-1.2736,-1.2744,-1.2734,-1.2775,-1.2761,-1.2764,-1.2764,-1.2774,-1.2779,-1.2784,-1.2721,-1.2721,-1.2721,0,0,-1.2768,-1.2765,-1.2779,-1.2777,-1.2775,-1.2767,-1.2771,-1.2764,-1.2761,-1.2774,-1.2758,-1.2765,-1.2775,-1.2774,-1.2775,-1.2811,-1.2798,-1.2813,-1.2836,-1.2846,-1.285,-1.2854,-1.2866,-1.2871,-1.2816,-1.2816,-1.2816,0,-1.279,-1.2801,-1.2788,-1.2798,-1.2799,-1.278,-1.2793,-1.2793,-1.2792,-1.2794,-1.2783,-1.2795,-1.2792,-1.281,-1.2818,-1.282,-1.2823,-1.2813,-1.2851,-1.2855,-1.2858,-1.2869,-1.2874,-1.2818,-1.2817,-1.2817,-1.2817,0,-1.2828,-1.2836,-1.2847,-1.2846,-1.2849,-1.2861,-1.285,-1.2855,-1.2845,-1.2839,-1.2852,-1.2849,-1.2852,-1.2856,-1.2847,-1.2872,-1.2866,-1.2854,-1.2834,-1.2865,-1.2875,-1.288,-1.282,-1.2819,-1.2819,-1.2818,0,0,-1.2882,-1.2874,-1.2878,-1.2877,-1.2873,-1.2878,-1.289,-1.2892,-1.2896,-1.2897,-1.2905,-1.2915,-1.2903,-1.2904,-1.2895,-1.2905,-1.2932,-1.2891,-1.2891,-1.2898,-1.2958,-1.2967,-1.2972,-1.2924,-1.2925,-1.2926,-1.2958,0,-1.2916,-1.2933,-1.2922,-1.2942,-1.2948,-1.2931,-1.294,-1.2939,-1.2934,-1.2939,-1.2933,-1.2939,-1.2924,-1.2924,-1.2933,-1.2927,-1.2944,-1.2925,-1.2932,-1.2932,-1.2931,-1.2977,-1.2986,-1.3017,-1.2962,-1.2963,-1.2963,0,-1.2957,-1.2958,-1.2979,-1.2973,-1.2975,-1.2984,-1.2985,-1.299,-1.2989,-1.2984,-1.2985,-1.2974,-1.2985,-1.2967,-1.2981,-1.2969,-1.2971,-1.2969,-1.297,-1.2969,-1.2948,-1.2976,-1.3026,-1.303,-1.297,-1.2969,-1.2969,0,-1.2993,-1.3,-1.3013,-1.3013,-1.3006,-1.3013,-1.301,-1.3008,-1.301,-1.3012,-1.3013,-1.3016,-1.3018,-1.302,-1.301,-1.2999,-1.3026,-1.3007,-1.3022,-1.3022,-1.3027,-1.3027,-1.3077,-1.3031,-1.3031,-1.3031,-1.3031,0,-1.3031,-1.3043,-1.3028,-1.3036,-1.305,-1.3037,-1.3051,-1.3047,-1.3045,-1.3051,-1.3037,-1.3044,-1.3031,-1.3036,-1.3029,-1.3041,-1.3043,-1.3039,-1.3036,-1.3039,-1.304,-1.304,-1.3037,-1.3032,-1.3032,-1.3032,-1.3032,0,-1.3072,-1.3063,-1.3075,-1.3068,-1.3067,-1.3077,-1.3071,-1.3078,-1.3072,-1.3081,-1.3082,-1.3073,-1.3078,-1.3069,-1.3074,-1.3069,-1.3086,-1.3081,-1.3086,-1.3084,-1.3098,-1.3097,-1.3149,-1.3155,-1.3107,-1.3107,-1.3108,0,-1.3096,-1.3106,-1.3099,-1.3103,-1.3101,-1.3107,-1.3109,-1.3097,-1.31,-1.3098,-1.3105,-1.311,-1.3112,-1.3122,-1.3116,-1.3119,-1.3114,-1.3132,-1.3114,-1.3116,-1.3112,-1.3111,-1.3112,-1.3135,-1.3136,-1.3136,-1.3137,0,-1.314,-1.3135,-1.3138,-1.314,-1.3143,-1.3144,-1.3144,-1.3147,-1.3135,-1.3139,-1.3144,-1.3146,-1.3151,-1.3155,-1.3157,-1.3155,-1.3143,-1.3142,-1.3146,-1.3148,-1.315,-1.3148,-1.3094,-1.3141,-1.314,-1.314,-1.314,-1.314,-1.3173,-1.318,-1.3176,-1.318,-1.3179,-1.3179,-1.3185,-1.318,-1.3184,-1.3186,-1.3179,-1.3186,-1.3184,-1.3185,-1.3184,-1.319,-1.3182,-1.3187,-1.3188,-1.3189,-1.3191,-1.315,-1.319,-1.319,-1.319,-1.319,-1.319,0,-1.3214,-1.3211,-1.3215,-1.3215,-1.3219,-1.3208,-1.3207,-1.321,-1.3216,-1.3215,-1.3218,-1.3224,-1.3228,-1.3223,-1.3226,-1.3231,-1.3226,-1.3232,-1.3231,-1.3231,-1.3198,-1.3194,-1.3236,-1.3236,-1.3236,-1.3236,-1.3236,-1.3236,-1.3236,-1.3247,-1.3242,-1.3252,-1.3249,-1.3255,-1.3256,-1.3256,-1.3255,-1.3262,-1.3265,-1.3261,-1.3258,-1.3261,-1.3264,-1.3262,-1.3264,-1.3272,-1.3268,-1.3238,-1.3233,-1.3229,-1.3225,-1.3272,-1.3272,-1.3299,-1.33,-1.33]},{"header":{"parameterUnit":"m.s-1","parameterCategory":1,"la1":30.2991,"la2":30.254,"lo1":-89.0895,"lo2":-89.0444,"dy":0.0017,"dx":0.0017,"nx":28,"ny":28,"refTime":"2025-02-07T03:00:00:Z","depth":0,"parameterNumber":3,"parameterNumberName":"V-component_of_WINDS"},"data":[0,0,0,0,0,0,0,0,0,0,0,0,0,0,0,0,0,0,0,0,0,0,0,0,0,0,0,0,0,0,0,0,0,0,0,0,0,0,0,0,0,0,0,0,0,0,0,0,0,0,0,0,0,0,0,0,0,0,2.3254,2.3255,0,2.3339,2.334,2.3341,2.3368,2.3367,2.3367,2.3366,2.3453,2.3455,2.3458,0,0,0,0,0,0,0,0,0,0,0,0,0,2.3114,2.3116,2.3254,2.3255,2.3256,2.3339,2.334,2.3341,2.3368,2.3367,2.3367,2.3366,2.3452,2.3455,2.3458,0,0,0,0,0,0,0,0,0,0,0,0,0,2.3184,2.3117,2.3254,2.3279,2.3282,2.3339,2.334,2.3342,2.3368,2.3367,2.3366,2.3366,2.3451,2.3455,2.3459,2.3496,0,0,2.3471,2.3473,0,0,0,0,0,0,0,0,2.318,2.3189,2.3274,2.3277,2.3281,2.3342,2.3322,2.3393,2.3368,2.3335,2.3366,2.3366,2.3416,2.3423,2.344,2.35,2.3503,2.3471,2.3474,2.3475,2.3476,0,0,0,0,0,0,0,2.3175,2.3186,2.3288,2.3275,2.328,2.3286,2.3296,2.3336,2.3378,2.3338,2.334,2.335,2.3418,2.3436,2.3443,2.3505,2.3471,2.3475,2.3477,2.3479,2.3601,2.3602,0,0,0,0,0,0,2.3166,2.3182,2.3285,2.329,2.3228,2.3289,2.33,2.3323,2.3378,2.3385,2.335,2.3351,2.343,2.3438,2.3446,2.3495,2.3475,2.3479,2.3481,2.36,2.3601,2.3602,0,0,0,0,0,0,2.3163,2.3175,2.3281,2.3237,2.3251,2.3292,2.3318,2.3325,2.3344,2.3387,2.3395,2.3362,2.343,2.344,2.3484,2.3498,2.3481,2.3485,2.3599,2.36,2.3602,2.3591,0,0,0,0,0,0,2.3159,2.3174,2.3188,2.3237,2.3253,2.3318,2.3319,2.3327,2.3351,2.3352,2.34,2.3407,2.343,2.3478,2.3488,2.3503,2.3488,2.3598,2.36,2.3601,2.3591,2.3592,2.3593,0,0,0,0,0,2.3154,2.3181,2.3189,2.3201,2.3272,2.3319,2.3328,2.3354,2.3352,2.3367,2.3395,2.3405,2.3494,2.3482,2.3493,2.351,2.3597,2.3599,2.3601,2.359,2.3592,2.3593,0,0,0,0,0,0,2.3133,2.3188,2.3197,2.3241,2.3275,2.3323,2.3343,2.3355,2.339,2.339,2.3421,2.3431,2.3473,2.3496,2.3481,2.355,2.3546,2.3551,2.3534,2.3536,2.3537,2.3532,2.3491,0,0,0,0,0,2.3133,2.3167,2.3213,2.3247,2.3264,2.33,2.3322,2.3339,2.3376,2.339,2.3421,2.3456,2.3492,2.3515,2.355,2.3594,2.3605,2.3611,2.3612,2.3613,2.3617,2.3644,2.3647,2.3608,2.3608,2.3608,0,0,2.3134,2.3169,2.3188,2.3244,2.3273,2.3307,2.3312,2.3348,2.3374,2.3395,2.3439,2.3463,2.3504,2.3548,2.3569,2.3568,2.3631,2.3616,2.3616,2.362,2.3646,2.365,2.3653,2.3609,2.3609,2.3609,0,0,2.3155,2.3183,2.3216,2.3245,2.3288,2.3313,2.332,2.3367,2.3384,2.3429,2.3446,2.3477,2.3538,2.3567,2.359,2.3623,2.3634,2.3633,2.3641,2.3666,2.3669,2.3672,2.3686,2.369,2.3636,2.3636,2.3636,0,2.3151,2.3204,2.3231,2.3267,2.3292,2.3313,2.3348,2.3374,2.3426,2.3443,2.3441,2.352,2.3548,2.3601,2.3609,2.3626,2.3637,2.3628,2.3667,2.367,2.3673,2.3686,2.3691,2.3636,2.3636,2.3636,2.3636,0,2.3198,2.3234,2.3255,2.3307,2.3334,2.3368,2.3402,2.3426,2.3441,2.3465,2.3511,2.3547,2.3591,2.3604,2.3618,2.3659,2.3657,2.3661,2.3658,2.3676,2.3689,2.3694,2.3636,2.3636,2.3636,2.3636,0,0,2.3207,2.3274,2.3282,2.3306,2.3356,2.3385,2.3421,2.3465,2.3485,2.3521,2.3552,2.3604,2.3608,2.3634,2.3652,2.3674,2.3701,2.3676,2.3677,2.3681,2.3749,2.3748,2.3753,2.3708,2.3709,2.371,2.3746,0,2.3235,2.3301,2.3327,2.3381,2.3416,2.3437,2.3469,2.3503,2.3527,2.356,2.3586,2.3623,2.3625,2.3641,2.3664,2.3693,2.3715,2.369,2.3739,2.374,2.373,2.3759,2.3757,2.379,2.3751,2.3752,2.3753,0,2.3276,2.3314,2.3371,2.3419,2.3434,2.3462,2.3505,2.3536,2.3576,2.3592,2.3621,2.3639,2.3678,2.3672,2.3727,2.3709,2.373,2.3748,2.375,2.3756,2.3749,2.3768,2.3801,2.3806,2.3761,2.376,2.376,0,2.328,2.3344,2.3387,2.3407,2.3463,2.3483,2.3507,2.3546,2.3571,2.3609,2.3626,2.3666,2.3689,2.3721,2.3749,2.3742,2.3802,2.3798,2.3817,2.3817,2.383,2.3829,2.3868,2.3841,2.3841,2.3841,2.3841,0,2.3309,2.3344,2.339,2.3416,2.3456,2.3486,2.3525,2.355,2.3585,2.3618,2.3638,2.3668,2.3703,2.3737,2.3759,2.3803,2.3812,2.3827,2.3833,2.3826,2.3825,2.3842,2.3841,2.3842,2.3842,2.3842,2.3841,0,2.332,2.3352,2.3401,2.345,2.3464,2.3491,2.3534,2.3561,2.3586,2.3627,2.3638,2.3677,2.3719,2.3751,2.3804,2.3819,2.3866,2.3871,2.3853,2.3856,2.3875,2.3873,2.3927,2.3937,2.3902,2.3902,2.3902,0,2.3337,2.3365,2.3418,2.3441,2.3466,2.3503,2.3529,2.3561,2.3587,2.3635,2.3657,2.37,2.3737,2.3803,2.3836,2.3878,2.3885,2.3901,2.3892,2.3885,2.3888,2.3887,2.389,2.3903,2.3903,2.3903,2.3904,0,2.3365,2.338,2.3418,2.3461,2.3492,2.3528,2.3563,2.3581,2.3619,2.3648,2.3692,2.372,2.3776,2.3819,2.3865,2.389,2.3904,2.3906,2.3913,2.3908,2.3897,2.3905,2.3858,2.3905,2.3905,2.3905,2.3905,2.3905,2.3381,2.3407,2.3449,2.3491,2.3521,2.3555,2.3583,2.3613,2.365,2.3699,2.3714,2.376,2.38,2.3863,2.3889,2.3925,2.3925,2.3934,2.3937,2.394,2.394,2.389,2.3933,2.3933,2.3933,2.3933,2.3933,0,2.3412,2.344,2.3478,2.3529,2.3562,2.3572,2.3613,2.3639,2.368,2.3716,2.3752,2.3803,2.3846,2.3883,2.3928,2.395,2.3957,2.396,2.396,2.3966,2.3937,2.3927,2.3954,2.3954,2.3954,2.3954,2.3954,2.3954,2.3432,2.3477,2.3497,2.3559,2.3587,2.3633,2.3655,2.3687,2.3716,2.3773,2.3809,2.3833,2.3871,2.3918,2.3958,2.3968,2.3984,2.3986,2.3998,2.397,2.3968,2.3965,2.3957,2.3989,2.3989,2.4024,2.4024,2.4025]}]]